{"data":{"norad_id":49097,"intl_designator":"2021-075Y","name":"ONEWEB-0311","alt_names":[],"object_type":"PAYLOAD","status":"ACTIVE","operator":null,"country":"UK","launch_date":"2021-08-21","launch_site_code":"TYMSC","launch_vehicle":null,"mission":null,"orbit_class":"UNKNOWN","rcs_meters":null,"size_class":null,"mass_kg":null,"dimensions":null,"purposes":["comms"],"wikipedia_slug":null,"has_3d_model":false,"image_url":null,"decayed_at":null,"tle_current":{"epoch":"2026-05-25T02:05:27.129120Z","epoch_age_seconds":57691,"freshness":"FRESH","line1":"1 49097U 21075Y   26145.08711955  .00000049  00000+0  93487-4 0  9995","line2":"2 49097  87.9157  10.4564 0002212  90.7783 269.3602 13.17648062230583","mean_motion":13.17648062,"eccentricity":0.0002212,"inclination_deg":87.9157,"raan_deg":10.4564,"arg_perigee_deg":90.7783,"mean_anomaly_deg":269.3602,"bstar":9.3487e-5,"rev_number":23058,"period_min":109.28563108227,"perigee_km":1192.0419592621,"apogee_km":1195.3917474068,"semimajor_km":7571.8538533345,"source":"CELESTRAK","updated_at":"2026-05-25T13:38:22.485601Z"}}}